Regional Weather Roundup
Issued by NWS Little Rock, AR

Home | Current Version | Previous Version | Graphics & Text | Print | Product List | Glossary On
Versions: 1 2 3 4 5 6 7 8 9 10 11 12 13 14 15 16 17 18 19 20 21 22 23 24 25 26 27 28 29 30 31 32 33 34 35 36 37 38 39 40 41 42 43 44 45 46 47 48 49 50
000
ASUS44 KLZK 210005
RWRLZK

WEATHER ROUNDUP FOR ARKANSAS
NATIONAL WEATHER SERVICE LITTLE ROCK AR
700 PM CDT MON OCT 20 2014

NOTE: "FAIR" INDICATES FEW OR NO CLOUDS BELOW 12,000 FEET WITH NO
SIGNIFICANT WEATHER AND/OR OBSTRUCTIONS TO VISIBILITY.

ARZ001-003-010-029-210100-
NORTHWEST ARKANSAS

CITY           SKY/WX    TMP DP  RH WIND       PRES   REMARKS
FAYETTEVILLE   PTCLDY    60  59  96 CALM      30.06R
6HR MIN TEMP:  60; 6HR MAX TEMP:  67;

FORT SMITH     MOCLDY    66  58  75 SE3       30.04R
6HR MIN TEMP:  64; 6HR MAX TEMP:  74;

HARRISON       CLEAR     61  59  93 CALM      30.04S
6HR MIN TEMP:  61; 6HR MAX TEMP:  72;

BENTONVILLE    CLEAR     63  55  77 SW3       30.06R
6HR MIN TEMP:  63; 6HR MAX TEMP:  70;

ROGERS         CLEAR     63  57  81 SW5       30.06R
6HR MIN TEMP:  63; 6HR MAX TEMP:  68;

SILOAM SPGS    PTCLDY    64  55  72 CALM      30.07R
6HR MIN TEMP:  64; 6HR MAX TEMP:  70;

HIGHFILL       CLEAR     61  58  90 SW5       30.05R
6HR MIN TEMP:  60; 6HR MAX TEMP:  69;

SPRINGDALE     CLEAR     64  59  82 CALM      30.07S
$$

ARZ004-005-016-210100-
NORTH CENTRAL ARKANSAS

CITY           SKY/WX    TMP DP  RH WIND       PRES   REMARKS
BATESVILLE     CLEAR     64  55  72 W5        30.01R
6HR MIN TEMP:  64; 6HR MAX TEMP:  73;

FLIPPIN        CLEAR     64  55  72 SW3       30.02S
6HR MIN TEMP:  64; 6HR MAX TEMP:  73;

MTN HOME       CLEAR     66  58  75 W3        30.01S
6HR MIN TEMP:  63; 6HR MAX TEMP:  72;

$$

ARZ040-041-210100-
WEST CENTRAL ARKANSAS

CITY           SKY/WX    TMP DP  RH WIND       PRES   REMARKS
MENA           CLEAR     68  63  83 CALM      30.04S
MOUNT IDA      PTCLDY    64  60  87 CALM      30.02S
6HR MIN TEMP:  64; 6HR MAX TEMP:  73;

$$

ARZ009-017-025-026-028-210100-
NORTHEAST ARKANSAS

CITY           SKY/WX    TMP DP  RH WIND       PRES   REMARKS
CORNING        FAIR      66  59  77 SW9       29.98S
JONESBORO      PTCLDY    68  55  63 SW9       29.99R
6HR MIN TEMP:  68; 6HR MAX TEMP:  75;

NEWPORT        CLEAR     67  57  70 SW7       30.02R
6HR MIN TEMP:  67; 6HR MAX TEMP:  76;

WALNUT RIDGE   CLEAR     66  55  68 SW7       29.99R
6HR MIN TEMP:  66; 6HR MAX TEMP:  75;

BLYTHEVILLE    CLEAR     66  56  70 SW6       29.99R
6HR MIN TEMP:  66; 6HR MAX TEMP:  75;

$$

ARZ022-023-033-042-044-210100-
CENTRAL ARKANSAS

CITY           SKY/WX    TMP DP  RH WIND       PRES   REMARKS
LITTLE ROCK    PTCLDY    64  54  69 SW5       30.03R
6HR MIN TEMP:  64; 6HR MAX TEMP:  73;

JACKSONVILLE   CLEAR     63  58  82 W6        30.02S
6HR MIN TEMP:  63; 6HR MAX TEMP:  74;

SEARCY         CLEAR     63  56  78 CALM      30.03R
6HR MIN TEMP:  63; 6HR MAX TEMP:  74;

HOT SPRINGS    CLOUDY    65  58  78 CALM      30.04S
6HR MIN TEMP:  64; 6HR MAX TEMP:  69; 6HR PCP: TRACE;

RUSSELLVILLE   CLEAR     62  59  90 CALM      30.03S
6HR MIN TEMP:  62; 6HR MAX TEMP:  72;

$$

ARZ036-210100-
EAST ARKANSAS

CITY           SKY/WX    TMP DP  RH WIND       PRES   REMARKS
WEST MEMPHIS   CLEAR     64  54  69 SW5       30.00S
6HR MIN TEMP:  64; 6HR MAX TEMP:  72;

$$

ARZ050-053-066-070-073-210100-
SOUTHWEST ARKANSAS

CITY           SKY/WX    TMP DP  RH WIND       PRES   REMARKS
ARKADELPHIA    FAIR      65  64  96 CALM      30.05R
6HR MIN TEMP:  65; 6HR MAX TEMP:  74; 6HR PCP: TRACE;

CAMDEN         PTCLDY    66  57  72 CALM      30.04R
TEXARKANA      CLEAR     66  58  75 CALM      30.03S
6HR MIN TEMP:  66; 6HR MAX TEMP:  76;

EL DORADO      CLEAR     63  59  87 CALM      30.04S
6HR MIN TEMP:  63; 6HR MAX TEMP:  76;

DE QUEEN       CLEAR     67  63  87 CALM      30.01S
6HR MIN TEMP:  67; 6HR MAX TEMP:  76;

$$

ARZ056-057-069-210100-
SOUTHEAST ARKANSAS

CITY           SKY/WX    TMP DP  RH WIND       PRES   REMARKS
PINE BLUFF     CLEAR     66  55  67 W6        30.03S
6HR MIN TEMP:  66; 6HR MAX TEMP:  72;

STUTTGART      CLEAR     64  54  68 W6        30.03R
6HR MIN TEMP:  64; 6HR MAX TEMP:  73;

MONTICELLO     LGT RAIN  63  58  83 CALM      30.03R
6HR MIN TEMP:  63; 6HR MAX TEMP:  74; 6HR PCP: TRACE;


$$




USA.gov is the U.S. government's official web portal to all federal, state and local government web resources and services.